User: anonymous   Login
Location: ?
(35.4996°N, 139.3166°E)
Time: 14:23:27
(UTC+00:00)
Language:

Cosmos 2278 Rocket - Orbit

View from above orbital plane
View from above orbital plane
View from above satellite
View from above satellite

Ground track
Ground track

The orbit data is extracted from the following two-line orbital elements,

1 23088U 94023B   24176.75008704  .00000042  00000-0  46410-4 0  9995
2 23088  71.0001 298.9802 0003521 199.7703 160.3283 14.14847486557970
Epoch (UTC): 24 June 2024 18:00:07
Eccentricity: 0.0003521
inclination: 71.0001°
perigee height: 840 km
apogee height: 845 km
right ascension of ascending node: 298.9802°
argument of perigee: 199.7703°
revolutions per day: 14.14847486
mean anomaly at epoch: 160.3283°
orbit number at epoch: 55797

The dashed part of the orbit path shows where the satellite is in the earth's shadow,  

DLR